Theta_e
306 305 304 304 305 306 307 308 309 310 311 311 311 309 308 307 305 305 305 306 306 306 305 303 301 301 301 301 301 302 303 302 302 301 301 301 300 299 299 297 297 296 295 293 292 291 290 290 289 289 288 288 288 287 287 287 286 286 286 286 286 285 285 285 285 284 284 285 284 283 283 283 282 282 282 282 282 283 283 283 283 283 283 284 284
306 305 304 304 304 304 305 307 308 309 311 311 310 308 307 306 305 305 305 306 306 306 305 302 300 300 300 299 299 299 300 301 300 300 300 299 299 298 298 297 296 295 294 293 291 290 289 289 288 288 288 288 287 287 287 286 286 286 286 285 285 285 285 285 285 284 283 284 283 283 283 283 282 282 282 282 282 282 283 283 283 283 283 283 283
306 305 304 303 304 304 304 306 307 308 309 310 309 307 307 307 306 305 306 306 305 305 304 301 299 299 299 298 298 298 299 299 299 299 299 299 298 297 297 296 296 294 293 292 290 289 288 288 288 287 287 287 287 287 286 286 286 286 285 285 285 285 285 285 284 284 283 283 283 283 283 282 282 282 282 282 282 282 283 283 283 283 283 283 282
306 305 304 303 303 303 303 304 306 308 309 309 308 306 306 307 306 305 306 307 305 304 302 300 298 298 298 297 298 297 297 297 297 298 298 298 298 297 296 296 295 295 294 292 290 288 288 287 287 287 287 286 286 286 286 285 285 285 285 285 285 285 285 284 284 284 284 283 283 283 283 282 282 281 282 282 282 282 282 283 283 283 282 282 281
306 305 304 303 303 303 303 303 304 306 308 308 307 306 306 306 306 305 305 306 305 303 300 298 297 297 297 297 297 297 297 297 297 297 297 297 297 297 296 295 295 294 293 291 289 288 287 287 287 287 287 286 286 286 285 285 285 285 284 285 285 285 284 284 283 283 283 283 283 282 282 282 282 282 281 281 282 282 282 282 282 282 281 281 280
306 305 304 303 303 303 302 302 302 304 306 307 306 305 305 306 305 304 305 305 304 301 299 297 296 296 296 296 297 297 297 296 296 297 297 297 296 296 296 295 294 293 291 290 289 288 287 287 287 287 287 287 286 286 285 285 284 284 284 285 285 285 284 284 283 283 283 283 282 282 282 282 282 282 282 282 282 282 282 282 282 281 281 280 279
306 305 304 303 303 303 302 302 302 302 304 306 306 304 304 305 305 304 304 303 302 300 298 296 296 296 296 296 295 296 296 295 296 296 296 296 295 295 294 294 292 290 289 288 288 287 287 287 287 287 287 287 286 286 285 285 285 284 284 285 285 285 284 283 283 282 282 282 281 281 282 282 282 282 282 282 281 281 281 281 281 281 280 279 279
306 305 304 303 303 303 303 302 302 301 302 303 304 304 303 303 303 303 302 301 300 299 298 297 296 295 295 295 294 294 294 294 295 295 294 294 294 294 293 292 290 288 288 288 287 287 287 286 287 287 287 287 286 286 285 285 285 284 284 285 285 284 284 283 282 282 281 281 281 281 281 282 282 282 281 281 281 281 281 280 280 280 279 278 278
306 305 304 304 303 303 302 302 301 301 301 301 302 303 303 303 302 301 301 300 299 298 298 297 296 294 294 293 293 292 292 293 293 294 293 292 291 291 291 290 289 288 287 287 286 286 286 286 286 286 286 286 286 285 285 285 285 285 285 285 285 284 284 283 282 281 281 280 281 281 280 281 282 281 281 282 281 280 280 280 279 279 279 278 278
306 305 304 304 304 302 301 301 301 301 300 300 300 301 302 302 301 301 300 300 299 297 296 295 295 294 293 292 291 291 291 291 292 292 292 291 290 289 289 288 288 288 287 286 285 285 285 286 286 286 286 286 285 285 284 284 284 285 286 285 285 285 284 282 281 281 280 280 281 281 280 280 282 282 281 282 281 280 279 279 279 279 278 277 277
306 305 305 305 304 302 301 301 300 300 300 300 299 299 300 301 301 300 300 299 298 297 295 295 294 294 293 292 291 290 290 290 290 290 289 289 289 288 288 288 287 287 286 286 285 285 285 285 285 285 285 285 284 284 283 284 284 285 285 285 285 285 284 283 282 281 281 280 281 281 280 280 282 281 281 281 280 279 279 279 278 278 277 276 276
306 305 305 305 303 302 301 300 300 300 300 299 299 299 299 300 300 300 299 298 297 295 294 294 294 293 292 291 290 290 290 289 288 288 288 288 288 288 287 287 286 286 285 285 285 285 284 284 284 284 284 284 283 283 283 284 285 285 285 284 285 284 283 282 282 281 281 281 281 281 281 281 281 281 281 280 279 279 279 278 278 278 277 276 275
306 305 305 304 303 302 301 300 300 299 299 299 298 298 297 298 299 299 298 298 296 294 293 293 293 292 291 290 289 289 289 288 287 288 288 288 288 287 287 287 286 286 285 285 284 284 284 284 283 283 283 283 283 283 284 285 285 285 285 285 284 283 282 281 281 281 281 281 281 281 281 281 280 281 280 279 279 278 278 278 278 277 276 276 276
305 305 305 303 302 302 300 299 299 299 299 298 297 297 297 297 297 297 297 296 295 294 293 292 292 291 290 289 289 289 288 288 288 288 287 287 288 287 287 286 286 285 285 285 284 284 284 284 283 283 283 282 283 285 285 285 285 285 285 284 283 282 281 280 280 280 280 280 280 281 281 281 280 280 279 278 278 278 278 277 277 277 276 276 276
305 305 304 303 302 302 300 299 299 298 298 298 297 296 296 296 296 295 295 295 294 294 294 292 292 291 290 289 288 287 287 288 288 288 287 287 287 287 286 285 285 285 285 284 284 284 284 284 283 283 283 283 285 287 287 286 286 285 285 284 283 281 280 280 280 280 280 280 280 280 280 280 279 279 278 278 278 278 277 277 277 277 276 276 275
304 304 303 303 302 301 300 299 298 298 297 297 296 296 295 295 295 294 294 293 293 293 293 292 291 290 290 289 287 287 287 287 287 287 287 287 286 286 285 285 285 284 284 284 284 284 283 283 283 284 284 285 287 288 288 287 286 285 284 284 282 281 280 280 280 279 279 279 279 279 279 279 279 278 278 278 278 278 278 277 277 277 276 275 275
304 303 303 303 302 301 301 300 298 298 297 296 296 295 295 294 294 293 293 292 292 292 292 291 291 290 289 288 287 286 286 286 286 286 286 286 286 285 284 284 284 283 283 283 284 283 283 284 284 284 284 287 289 289 288 287 286 285 285 284 282 280 280 280 280 279 279 279 278 279 279 278 279 279 279 279 279 279 278 277 277 276 276 275 274
303 303 303 303 303 302 301 300 299 298 297 296 296 295 294 294 293 293 293 292 292 291 291 290 290 289 289 288 287 286 286 286 286 286 286 286 285 284 283 283 283 283 282 282 282 282 283 284 284 284 286 289 291 290 289 288 287 286 285 283 281 280 280 280 280 280 279 279 278 278 279 279 279 279 280 280 280 280 279 278 277 277 276 275 274
304 304 304 303 303 302 301 300 300 299 297 297 296 295 294 294 293 293 292 292 291 291 290 290 289 288 288 288 287 286 286 286 286 285 285 286 285 284 283 283 282 282 282 282 282 282 283 283 283 285 289 292 292 290 289 288 287 286 285 282 280 280 281 281 280 280 279 279 278 278 278 278 279 278 278 278 278 278 278 278 278 277 276 276 275
304 304 303 302 302 301 301 300 299 299 298 297 296 295 295 294 293 292 292 292 291 291 290 289 289 288 288 287 287 286 286 285 285 285 285 285 285 284 283 283 282 282 282 282 282 282 282 282 283 287 291 292 291 290 289 288 287 286 283 281 280 281 281 281 280 279 279 278 278 278 277 277 277 277 277 277 276 277 277 277 277 277 276 276 275
303 302 302 301 301 301 300 300 299 299 298 298 296 295 294 294 293 292 292 291 291 290 290 289 288 288 287 287 286 286 285 285 285 284 285 285 285 284 283 283 282 282 282 283 282 282 282 282 284 289 291 291 290 290 289 287 285 283 282 281 281 281 281 280 279 279 278 278 278 277 278 278 278 277 277 277 277 276 276 276 276 276 276 276 275
301 301 300 300 299 299 299 299 299 298 298 297 296 295 294 294 293 293 292 291 290 289 289 288 288 287 287 286 286 285 284 284 284 284 285 285 285 284 283 283 283 283 283 282 282 283 283 284 287 291 291 290 290 290 288 285 283 282 282 281 281 280 280 279 279 278 278 278 278 278 278 278 278 278 277 277 277 277 276 276 276 276 276 276 275
300 299 299 298 298 298 298 298 298 297 297 296 295 295 294 293 293 292 291 290 289 289 288 288 287 286 285 285 285 285 284 284 284 284 285 285 284 284 284 284 284 284 283 283 283 284 284 286 289 291 290 290 290 289 287 284 282 281 281 281 280 280 280 279 279 279 279 278 278 278 278 278 278 278 278 277 277 277 277 276 276 276 276 275 275
298 298 298 298 298 298 297 297 297 296 296 295 294 294 293 292 292 291 290 290 289 288 287 287 286 285 284 284 284 284 284 283 283 284 284 284 284 284 284 284 284 284 284 284 284 284 284 287 290 291 290 290 289 288 286 283 281 281 281 280 280 280 280 280 279 279 279 279 278 278 278 278 278 278 278 278 277 277 277 276 276 276 275 275 274
297 297 297 297 297 297 297 296 296 296 295 295 294 293 292 291 290 290 289 289 288 287 287 286 285 284 284 283 283 282 282 282 282 283 284 284 284 284 284 284 284 284 283 283 283 284 286 288 290 290 289 289 288 286 284 282 281 281 281 280 281 280 280 280 280 279 279 278 278 278 278 278 278 278 278 277 277 276 276 276 275 275 275 274 273
296 296 296 296 296 296 295 295 295 294 294 294 293 293 292 291 290 289 288 288 287 287 286 285 285 284 283 283 282 282 282 282 282 283 283 284 284 285 285 284 284 283 283 283 283 285 287 289 289 288 287 286 285 283 282 281 281 281 281 281 281 281 281 280 280 280 280 279 279 278 278 278 278 277 277 276 276 276 275 275 275 274 274 273 273
295 295 295 295 295 294 294 294 293 293 292 292 292 291 291 291 289 288 287 287 286 286 286 285 284 284 283 282 282 281 282 282 282 282 283 283 284 285 285 284 284 283 283 283 284 286 287 287 287 286 285 284 283 282 282 281 281 281 282 282 281 281 281 281 281 280 280 280 279 278 278 277 277 276 276 276 275 275 274 274 273 273 273 272 272
293 294 294 294 293 293 293 293 292 292 291 291 290 290 290 289 289 288 288 288 287 286 285 285 284 284 283 282 281 281 281 281 282 282 283 283 283 284 285 285 284 284 283 284 284 285 286 285 284 284 283 282 282 281 281 281 281 281 281 281 281 281 281 280 280 280 279 279 278 277 277 276 276 275 275 274 274 273 273 272 272 272 272 271 271
293 293 293 292 292 292 292 291 291 291 290 289 289 289 289 289 289 289 288 288 288 287 286 285 285 284 284 283 282 282 281 282 283 283 282 282 283 284 284 285 285 284 284 284 285 285 284 284 283 282 282 282 281 281 281 281 281 280 280 280 280 280 279 279 279 278 278 278 277 276 276 275 275 274 274 273 273 272 272 272 272 272 271 271 270
292 292 292 291 291 291 290 290 290 289 289 288 288 287 288 288 288 288 288 288 288 287 287 287 286 285 285 284 284 284 284 284 284 283 282 282 282 283 283 284 284 284 285 285 285 284 283 283 282 282 282 281 281 281 281 280 280 280 280 280 279 279 278 278 277 277 277 277 277 276 276 275 274 274 273 273 272 272 272 271 271 271 271 270 270
291 290 290 290 290 290 289 289 288 288 288 287 287 286 286 286 286 287 287 287 287 286 286 286 286 286 285 285 284 285 285 285 285 284 283 283 282 282 282 282 283 284 285 285 284 284 283 282 282 282 282 281 281 281 280 280 280 280 279 279 279 278 277 277 277 277 277 277 276 276 276 275 274 273 273 273 272 272 271 271 271 270 270 270 270
290 290 290 290 289 289 288 288 287 287 286 286 286 286 285 284 284 285 285 285 286 285 285 285 285 285 285 285 285 284 285 285 286 285 284 283 283 282 282 282 283 283 284 284 283 283 283 282 282 281 281 281 281 280 280 280 279 279 279 278 278 277 277 277 277 277 277 276 276 275 275 274 274 273 273 272 272 271 271 271 270 270 270 270 269
289 289 289 289 288 288 288 287 287 286 286 285 285 285 285 284 283 283 284 284 284 284 285 285 285 285 285 285 285 285 285 285 286 285 285 284 284 283 282 282 282 282 283 283 283 282 282 282 281 281 281 281 280 280 280 279 279 278 278 278 277 277 277 276 276 276 276 276 275 274 274 274 273 272 271 271 270 270 270 270 270 270 269 269 269
289 289 289 289 288 287 287 287 286 286 285 285 285 284 284 284 283 283 283 283 283 283 284 284 284 285 285 284 285 285 285 285 285 285 284 283 283 282 282 281 281 281 282 282 282 281 281 281 280 280 280 280 280 280 279 279 278 278 277 277 277 276 276 277 276 275 275 274 274 274 273 273 272 271 270 270 270 270 270 270 269 269 269 268 268
288 288 288 288 288 287 287 286 286 285 285 284 284 284 284 284 283 283 283 283 282 282 282 283 283 283 283 284 284 283 283 283 283 283 283 282 282 281 281 280 280 281 281 281 281 280 280 279 279 279 279 279 279 279 278 278 278 277 277 276 276 276 276 276 275 275 274 273 273 273 272 272 272 271 270 270 270 269 269 269 269 269 268 268 267
287 287 287 287 287 287 287 286 286 285 285 284 284 284 283 283 283 283 282 282 282 281 281 282 282 282 282 282 282 282 282 282 282 282 281 281 281 281 280 280 280 280 280 280 280 279 279 278 278 278 278 278 278 278 278 277 277 277 276 276 276 275 275 275 274 274 273 273 272 272 271 271 271 270 270 270 269 269 269 269 269 268 268 267 267
287 287 287 287 287 286 286 286 285 285 285 284 284 283 283 283 282 282 282 281 281 281 281 280 280 280 281 281 281 281 281 281 281 281 281 281 281 281 280 280 279 279 279 279 278 278 278 278 278 277 277 277 277 277 277 277 277 276 276 275 275 275 274 274 274 273 273 272 272 271 271 270 270 270 270 269 269 269 268 268 268 267 267 267 266
286 286 286 286 286 285 285 285 285 284 284 284 283 283 282 282 282 282 281 281 280 280 280 280 279 279 279 280 280 280 280 280 280 280 280 281 281 280 280 279 279 279 278 278 277 277 277 277 277 277 277 277 277 277 277 277 276 276 275 275 274 274 274 274 274 273 273 272 272 271 271 271 271 270 270 269 268 268 268 268 267 267 266 266 265
285 285 285 285 285 285 285 284 284 284 284 283 283 283 282 282 281 281 280 280 280 279 279 279 279 279 279 279 280 280 280 280 280 280 280 280 280 280 279 279 278 278 278 278 277 277 276 276 276 276 276 276 276 276 276 276 275 275 275 274 274 274 274 274 274 273 273 272 272 272 272 271 271 270 269 268 268 267 267 267 267 266 266 265 265
284 284 284 284 284 284 284 284 284 283 283 283 283 282 282 281 281 281 280 280 279 279 278 279 279 279 279 279 279 279 279 279 279 280 280 280 280 280 279 278 278 278 278 278 277 277 277 276 276 276 276 276 276 276 276 275 275 275 275 275 274 274 274 274 273 273 273 272 272 272 271 271 270 269 269 268 267 267 267 266 266 266 265 265 264
283 283 283 283 283 283 283 283 283 283 283 283 283 282 282 281 281 280 280 280 279 279 278 278 279 279 279 279 279 279 279 279 279 279 279 279 279 279 279 278 278 278 278 277 277 277 277 277 276 276 276 276 276 276 276 275 275 275 275 275 274 274 274 273 273 272 272 272 271 271 270 270 269 268 268 267 267 266 266 265 265 265 264 264 264
283 282 282 282 282 283 283 282 282 282 282 282 282 282 281 281 281 280 280 280 279 279 278 278 278 279 279 279 279 279 279 279 278 278 278 278 278 278 278 278 278 278 277 277 277 277 277 277 277 276 276 276 276 276 276 275 275 275 274 274 274 273 273 273 272 272 271 271 270 270 269 268 268 267 267 266 266 265 265 265 264 264 264 264 263
282 282 282 282 282 282 282 282 282 281 281 281 281 281 281 281 281 281 280 280 280 279 279 278 278 278 278 278 278 278 278 278 278 278 278 277 277 278 278 277 277 277 277 277 277 277 277 277 276 276 276 276 276 275 275 275 274 274 273 273 273 272 272 272 271 271 270 270 269 268 268 267 266 266 266 265 265 265 264 264 264 264 263 263 263
281 281 281 281 281 281 281 281 281 281 280 280 280 280 280 280 280 280 280 279 279 279 278 278 278 277 277 277 277 278 278 278 278 278 277 277 277 277 277 277 277 277 276 276 276 276 276 276 276 276 275 275 275 274 274 274 273 273 273 272 272 271 271 271 271 270 270 269 268 267 266 266 265 265 265 265 264 264 264 264 263 263 263 263 262
280 280 280 280 279 280 280 280 280 279 279 279 279 279 279 279 279 278 278 278 278 277 277 277 277 277 276 276 276 277 277 277 277 277 277 277 276 276 276 276 276 276 276 276 276 276 275 275 275 275 274 274 273 273 273 272 272 271 271 271 271 270 270 270 269 268 268 267 266 266 265 265 265 264 264 264 264 263 263 263 263 262 262 262 261
280 280 280 280 280 280 279 279 279 279 278 278 278 277 277 277 277 277 277 277 277 276 276 276 276 276 276 276 276 276 276 276 276 276 276 276 276 276 276 276 276 275 275 275 275 274 274 274 273 273 273 272 272 272 271 271 270 270 270 270 269 269 268 268 267 266 266 266 266 265 265 265 264 264 264 263 263 263 263 262 262 262 262 261 261
279 279 280 280 280 280 279 279 279 278 278 278 277 277 277 276 276 276 276 276 275 275 275 275 275 275 275 275 275 275 275 275 275 275 275 275 275 275 275 275 274 274 274 273 273 273 272 272 272 272 271 271 271 270 270 270 270 269 269 268 268 267 267 266 266 266 265 265 265 265 264 264 264 264 263 263 263 262 262 262 262 261 261 261 260
279 279 280 280 280 280 279 279 278 278 278 277 277 276 276 275 275 275 275 275 275 274 274 274 274 274 274 274 274 274 274 274 274 274 274 274 274 274 274 273 273 273 272 272 272 272 271 271 271 270 270 270 270 269 269 269 269 268 267 267 266 266 266 266 265 265 265 264 264 264 264 264 264 263 263 263 263 262 262 262 261 261 260 260 260
278 278 278 278 278 278 278 278 277 277 276 276 275 275 275 274 274 274 274 274 274 273 273 273 273 273 273 273 273 272 272 272 272 272 272 272 272 272 272 272 272 272 271 271 271 270 270 270 270 270 269 269 269 269 268 268 267 267 266 266 266 265 265 265 265 265 264 264 264 264 263 263 263 263 263 262 262 262 262 261 261 260 260 259 259
275 275 276 276 276 276 275 275 275 275 275 274 274 274 274 273 273 273 273 272 272 272 272 272 272 272 272 272 272 271 271 271 271 271 271 271 271 271 271 271 270 270 270 270 269 269 269 269 269 269 268 268 268 267 267 267 266 266 265 265 265 265 265 264 264 264 264 264 263 263 263 263 263 262 262 262 261 261 261 261 260 260 259 259 259
273 273 273 273 273 273 273 273 272 272 272 272 272 272 272 271 271 271 271 271 271 271 271 271 271 271 271 271 271 271 271 271 270 270 270 270 270 270 269 269 269 269 269 268 268 268 268 268 268 267 267 267 267 266 266 266 266 265 265 265 264 264 264 264 264 264 263 263 263 263 262 262 262 262 262 261 261 261 260 260 260 259 259 258 258
Wind_Speed
31 31 31 31 33 34 34 34 34 34 33 33 33 33 32 31 31 31 31 31 32 32 32 32 34 35 37 37 38 39 39 39 39 40 40 41 41 41 41 40 38 37 36 34 33 33 33 33 31 29 28 27 27 25 24 22 20 19 18 16 15 14 12 13 11 10 12 13 12 12 12 12 12 10 9 9 9 10 11 12 12 13 14 15 17
32 31 31 31 33 33 33 33 34 34 35 35 35 34 33 32 32 32 32 31 32 32 33 33 34 35 37 38 39 39 39 40 41 41 41 41 41 41 41 40 39 38 37 36 35 34 33 33 32 31 30 28 27 26 24 23 21 19 18 16 14 13 12 12 13 12 13 14 13 13 13 13 12 11 10 10 10 11 11 12 12 13 14 16 17
32 31 31 32 33 33 33 33 34 34 35 36 36 35 34 33 33 33 33 32 32 33 34 34 35 36 37 38 39 39 39 41 41 42 42 42 43 42 42 42 41 39 38 37 36 36 35 35 34 33 31 29 27 26 24 22 21 19 17 15 13 12 12 13 14 14 14 14 14 14 14 14 13 11 11 11 11 11 12 13 13 14 15 16 17
31 31 31 32 32 33 34 34 35 36 37 37 37 36 35 34 34 34 33 33 34 34 35 35 35 36 37 38 39 39 39 41 42 42 43 43 44 43 42 42 42 41 39 38 38 38 37 37 36 34 32 30 28 26 25 23 22 19 17 15 13 12 13 14 15 15 14 14 14 14 14 14 13 12 12 12 12 12 13 14 15 15 16 16 16
32 31 31 32 32 33 35 35 36 38 38 38 37 36 35 35 35 35 34 34 35 36 36 36 36 36 38 38 39 39 40 41 43 43 44 44 44 44 43 43 42 41 40 39 39 39 39 39 37 35 33 31 30 28 26 25 22 19 17 15 14 13 15 16 16 16 16 16 15 14 13 14 14 13 13 13 13 13 14 15 16 16 16 16 15
31 31 32 32 33 34 36 37 38 38 39 39 38 36 35 36 36 36 35 35 36 37 37 37 37 37 38 39 39 40 41 42 43 44 44 44 44 43 43 42 42 41 40 40 40 40 40 39 37 36 34 33 32 30 28 25 22 20 19 16 14 15 16 17 18 18 18 18 16 15 15 15 14 14 13 13 13 14 15 16 16 16 16 16 16
32 32 33 33 34 35 37 38 39 38 38 39 38 36 36 36 37 37 36 36 37 37 37 37 37 37 38 39 40 40 41 42 43 44 45 45 44 44 43 42 42 41 40 40 39 40 40 39 37 36 35 33 31 30 28 25 22 21 18 16 15 16 18 19 19 19 19 19 18 17 17 16 15 15 14 13 14 15 16 16 17 17 16 17 19
33 34 33 34 36 37 37 37 38 38 37 37 38 37 37 37 37 37 36 37 38 38 38 38 38 38 39 39 40 41 41 43 44 45 45 45 44 44 43 42 41 40 39 39 40 40 40 39 37 35 34 32 29 28 26 23 22 21 18 16 16 17 19 20 20 20 20 19 18 18 17 16 17 16 15 15 16 16 15 15 17 18 17 19 20
34 35 35 36 38 37 36 36 36 37 36 36 37 38 38 38 37 37 37 38 38 39 39 39 39 39 39 40 40 41 42 44 45 46 45 45 45 44 43 43 42 41 41 40 40 40 40 38 37 34 32 30 27 25 22 21 20 18 17 17 18 19 21 22 22 22 21 20 19 18 17 18 19 18 17 17 17 16 15 15 18 19 19 21 21
35 35 36 38 38 35 34 34 35 36 37 37 38 38 38 38 38 38 38 39 39 39 39 38 39 40 40 40 41 42 43 44 45 46 47 46 45 44 43 43 43 42 42 41 40 40 39 38 35 33 31 28 26 23 21 19 17 15 15 16 18 20 22 24 24 24 22 21 20 19 18 20 22 19 18 18 17 16 16 16 18 19 19 20 20
34 35 37 39 37 34 33 34 34 35 37 38 38 38 38 38 39 39 39 39 39 39 39 39 40 40 41 41 42 43 44 45 46 46 45 44 43 43 43 43 42 42 42 42 42 40 39 37 35 32 30 28 26 24 22 19 17 15 16 17 18 20 23 25 25 25 23 22 21 20 20 22 22 19 18 18 17 17 17 17 18 18 17 16 16
34 36 37 37 35 35 34 34 35 36 37 38 39 39 38 38 39 39 39 39 39 39 39 40 41 41 41 42 43 44 44 45 45 44 44 43 43 43 43 43 42 42 42 42 42 40 39 37 35 32 30 29 27 25 22 19 18 17 17 18 20 21 23 24 24 24 23 23 22 22 22 22 22 20 19 19 18 17 17 17 17 18 17 16 15
33 35 36 35 34 34 34 34 35 36 37 38 38 37 37 39 41 41 40 40 39 39 40 40 41 41 42 42 43 43 43 44 44 45 45 45 45 44 44 43 43 43 42 41 41 40 39 37 35 32 30 28 27 24 22 20 19 18 19 20 21 22 24 24 24 24 23 22 23 24 23 22 22 21 19 18 17 16 16 17 18 18 18 17 18
32 34 35 34 33 33 33 33 34 35 35 35 35 36 38 40 40 40 39 39 39 40 40 40 41 41 41 42 42 42 43 44 46 46 46 46 46 45 44 42 42 42 41 41 41 40 40 39 37 34 31 28 25 23 22 21 20 20 21 22 23 24 25 25 25 25 25 24 25 25 24 22 23 22 19 17 17 17 17 18 18 18 19 19 19
30 32 32 31 32 33 33 33 34 35 35 35 35 37 39 40 39 38 38 39 40 41 41 41 42 42 41 41 41 41 43 44 45 46 47 47 46 45 43 41 41 40 40 41 40 40 40 39 37 33 30 27 25 24 23 22 22 22 22 24 25 25 26 27 26 27 26 26 26 25 23 22 22 21 19 18 18 18 17 18 18 18 19 20 19
28 29 30 31 32 32 32 33 33 34 34 34 35 37 39 40 39 38 37 38 39 40 40 41 41 41 41 41 40 40 42 42 43 45 46 46 46 44 43 42 41 41 41 40 40 40 40 37 34 31 29 27 25 24 23 22 22 23 24 25 26 27 29 29 28 27 27 27 26 24 23 21 20 19 18 17 17 16 15 16 17 18 18 18 18
27 28 29 31 31 31 32 33 33 33 34 34 36 38 38 39 38 37 36 36 37 38 39 40 40 40 40 40 40 40 40 41 43 43 44 45 45 44 42 41 40 39 39 39 39 39 38 35 33 32 29 27 25 24 23 23 23 24 24 25 26 28 30 28 27 27 27 27 25 23 21 20 19 17 16 15 15 15 16 18 19 18 17 16 16
26 27 29 30 30 31 32 32 33 34 34 35 37 38 37 38 38 37 37 37 37 37 37 36 36 37 38 39 39 39 39 40 41 42 43 44 44 43 40 37 35 35 35 35 36 36 35 33 33 31 28 25 23 23 23 23 24 24 24 24 26 28 29 27 26 26 25 24 23 21 19 17 16 15 15 15 15 17 18 19 18 17 16 15 16
25 26 27 28 28 29 30 32 33 34 35 36 37 38 37 37 37 37 37 36 35 34 34 33 33 34 36 37 38 38 37 37 38 40 40 41 41 39 36 34 33 33 34 34 33 33 34 33 31 28 25 22 22 23 23 23 23 24 23 24 27 29 28 26 25 25 24 23 21 20 19 19 18 19 20 20 19 19 20 20 18 18 18 19 19
23 25 25 25 26 28 29 31 33 34 35 36 37 37 37 36 35 35 36 36 34 33 32 32 33 33 35 36 37 37 37 37 36 37 37 38 39 38 36 35 34 33 33 34 34 33 33 33 32 28 24 22 22 22 22 22 23 23 23 25 28 28 27 25 23 23 22 21 20 20 19 19 18 18 18 18 17 19 22 22 22 22 22 23 23
22 22 23 24 25 27 28 30 31 33 35 36 36 36 36 35 34 34 35 34 33 31 31 32 32 32 33 34 35 35 36 36 34 33 34 36 39 39 37 35 34 33 33 34 35 35 35 35 33 29 24 22 21 20 21 22 22 23 24 26 27 26 24 22 20 19 19 19 18 17 16 16 15 14 14 14 13 14 17 18 19 20 21 24 25
21 21 21 22 24 25 27 28 29 31 33 34 34 34 33 33 34 34 34 33 32 31 30 30 30 29 29 30 31 32 33 32 30 30 33 35 37 39 38 35 35 36 35 35 35 36 37 36 32 27 23 21 19 19 20 21 22 24 26 25 24 23 22 21 19 18 18 17 16 16 16 16 16 15 15 14 14 14 15 16 17 19 22 25 26
20 21 21 22 23 23 25 26 28 30 31 32 33 32 32 32 32 32 32 31 30 28 27 27 26 25 24 25 27 28 29 29 28 30 33 36 37 38 39 37 37 38 37 36 36 37 38 36 30 24 20 19 19 20 20 20 22 25 25 24 22 21 21 20 19 18 18 17 17 19 19 18 18 17 17 17 16 17 18 19 20 22 23 25 26
20 21 21 22 22 23 24 25 26 28 30 31 31 31 30 30 30 31 31 30 28 26 24 24 23 22 21 22 23 25 27 28 28 30 33 35 37 38 39 38 37 37 36 36 36 37 37 33 26 21 19 19 20 20 19 20 22 24 24 23 22 20 20 20 20 19 19 20 21 21 20 19 18 18 18 18 18 18 19 20 20 21 23 25 25
20 21 21 21 22 22 23 24 25 27 28 29 30 29 29 28 28 28 28 28 26 23 22 22 22 21 21 21 22 24 25 27 28 30 32 33 35 36 37 38 37 37 36 34 33 34 32 27 22 20 20 20 19 18 19 21 22 23 22 21 20 19 20 21 21 21 22 22 22 20 19 18 18 18 19 18 18 18 18 18 19 20 21 23 23
20 21 21 21 20 21 21 22 23 25 26 27 29 29 29 29 28 27 27 26 25 23 21 22 22 21 20 21 22 24 25 27 29 30 31 32 32 32 34 35 36 35 34 32 31 29 27 23 21 20 20 19 18 18 20 21 22 21 21 19 19 20 22 23 23 23 22 20 18 17 17 17 17 17 17 17 17 16 16 16 17 18 18 20 21
20 21 21 20 20 20 21 21 22 23 24 25 26 26 27 28 28 27 26 25 23 21 21 21 21 21 21 21 22 24 26 27 29 30 31 32 32 31 31 32 33 33 32 31 30 29 25 22 21 19 18 17 17 18 20 20 21 21 21 20 21 22 23 23 23 23 21 19 17 17 16 15 14 14 14 14 14 14 14 14 15 15 16 18 20
20 21 21 20 20 19 20 21 22 22 23 24 25 25 25 26 27 27 27 27 25 23 23 23 24 24 23 23 22 23 24 27 30 32 33 32 32 32 32 31 32 33 32 31 30 27 24 20 18 17 17 18 19 21 21 21 21 21 21 22 23 23 23 22 21 21 20 19 18 16 16 15 14 12 12 12 12 12 12 12 14 15 16 18 20
19 20 20 19 19 19 19 20 21 22 22 22 23 24 25 26 27 27 27 28 28 27 27 27 27 27 26 26 26 25 25 30 33 33 33 34 34 34 34 33 32 31 30 30 28 25 22 20 20 21 22 23 24 24 23 22 21 21 22 22 23 22 22 21 21 21 20 19 17 16 15 14 13 12 12 12 12 12 12 13 14 16 17 19 20
19 19 18 18 18 18 19 19 20 21 22 21 21 20 20 22 24 25 24 25 25 26 26 26 27 27 27 28 29 28 27 29 31 31 31 33 34 35 35 33 31 30 27 26 25 24 23 24 24 25 26 26 25 24 24 23 23 23 23 23 23 22 21 20 20 20 19 19 19 18 17 16 15 14 14 14 14 13 13 14 15 16 17 18 19
19 18 18 18 18 19 19 19 19 20 20 21 21 19 17 16 17 19 20 20 21 22 23 23 23 25 25 26 26 26 24 22 22 25 29 32 33 34 34 33 32 30 27 25 25 26 26 26 26 26 26 26 25 25 24 24 25 24 24 23 23 22 21 21 21 20 20 20 20 19 19 18 17 16 16 16 15 14 14 14 14 15 16 17 20
20 19 18 18 18 19 19 20 20 20 20 20 20 20 18 15 12 12 14 15 17 19 20 20 19 20 21 23 23 23 23 20 16 17 22 28 30 31 31 31 30 28 26 25 26 28 28 27 26 26 27 26 26 26 26 26 25 25 23 23 23 22 21 21 21 20 21 21 20 20 20 19 19 18 17 16 15 14 14 14 15 16 17 19 21
20 19 18 17 18 18 19 20 20 21 21 21 20 20 20 18 16 13 11 10 12 13 15 17 17 16 16 18 19 20 20 19 16 13 15 20 25 26 25 25 24 24 24 27 28 28 28 28 28 28 28 28 27 27 27 26 25 24 23 23 23 22 22 21 20 20 21 21 20 20 21 20 19 18 17 16 16 15 15 16 17 17 18 20 21
20 19 18 18 18 19 20 21 21 21 22 22 21 20 20 19 19 18 17 14 12 11 11 12 14 14 14 15 16 16 16 16 16 15 14 17 20 21 20 19 19 21 24 28 29 28 28 29 28 29 29 29 28 28 27 26 25 24 23 23 22 22 21 21 21 21 21 20 19 19 19 18 17 16 15 14 14 15 16 17 18 18 19 20 20
18 17 17 18 19 20 21 21 21 21 22 22 22 21 20 19 20 20 20 19 17 15 13 12 12 12 13 13 14 14 14 14 14 15 16 18 20 20 20 20 21 22 26 29 31 30 29 30 29 29 29 29 28 28 27 26 25 23 23 23 22 22 21 22 22 21 19 17 17 16 15 15 15 15 14 13 13 15 17 18 18 19 19 19 19
17 16 17 18 19 21 21 21 22 22 22 22 21 21 20 20 21 20 19 19 18 16 15 14 13 12 12 13 14 14 14 15 15 16 18 19 21 23 25 26 26 26 26 29 30 29 28 29 29 28 28 28 27 27 26 25 24 23 23 23 23 22 22 22 21 20 18 18 17 15 14 14 14 14 14 15 16 17 18 18 18 19 18 18 17
17 17 17 18 19 20 20 21 21 21 22 22 21 21 20 21 21 20 18 18 18 17 17 17 16 15 15 15 16 15 15 15 15 16 17 19 22 25 28 28 27 26 26 27 28 27 27 27 27 27 26 26 26 26 25 24 23 23 22 22 22 21 21 20 20 20 20 19 18 17 16 16 15 15 16 18 18 18 18 18 18 18 17 16 16
17 17 18 19 19 20 20 20 20 20 21 21 21 21 20 20 20 20 19 19 19 19 19 19 18 18 19 19 18 17 15 15 16 17 18 21 24 26 27 26 25 25 25 25 25 26 25 25 25 24 24 24 24 24 24 23 22 21 21 21 20 20 19 19 19 20 20 20 19 19 19 18 18 18 18 19 19 19 18 18 18 17 16 15 15
15 16 17 18 19 20 20 21 20 20 20 20 20 20 20 20 20 20 19 19 19 19 19 19 19 19 20 21 21 21 20 19 20 21 22 24 25 26 25 24 23 23 22 23 23 23 23 22 23 22 22 23 23 24 23 22 21 20 21 21 20 20 20 20 21 20 20 21 21 20 20 20 19 19 18 19 19 18 18 17 17 16 16 16 16
13 14 15 17 18 19 19 20 20 20 20 20 20 20 21 21 21 21 20 20 20 20 20 20 20 21 22 23 24 25 24 23 23 24 24 24 24 24 24 24 24 23 23 23 23 23 22 22 22 22 22 23 23 23 22 21 20 21 22 21 21 21 21 22 21 21 21 21 21 20 20 20 19 19 19 19 18 17 16 15 15 15 15 16 16
13 14 15 16 17 18 18 19 20 21 21 21 21 21 21 21 21 21 21 20 21 21 21 21 21 21 23 24 24 24 24 22 22 23 24 24 24 24 25 25 25 24 24 23 23 23 23 22 22 22 22 22 22 22 21 20 21 21 21 21 20 20 20 21 21 21 21 20 20 20 20 19 19 19 18 17 16 15 14 14 15 15 15 15 15
14 15 16 16 16 17 18 19 20 20 20 20 20 20 20 20 20 20 21 21 21 21 21 21 21 21 23 23 22 21 21 20 21 22 23 23 24 24 24 24 24 23 22 22 22 22 22 21 21 21 21 22 22 21 21 21 21 21 21 21 20 21 21 21 22 21 21 21 21 20 19 19 18 18 17 15 15 15 15 16 15 15 15 15 14
14 16 17 17 17 17 18 19 19 19 19 20 20 20 20 20 20 20 20 21 21 22 22 22 21 21 22 23 21 20 20 20 20 21 22 23 23 23 22 22 22 20 19 20 20 20 20 20 20 20 20 20 20 19 20 20 20 20 20 21 21 21 22 22 22 22 22 21 21 20 19 18 18 17 16 16 16 17 16 16 16 15 15 15 14
14 15 16 16 16 16 16 16 17 17 17 18 18 18 18 18 18 19 19 19 20 21 21 21 21 20 21 22 21 20 21 21 20 20 21 21 22 21 21 21 20 19 18 18 18 18 18 18 19 19 19 18 18 18 18 19 19 20 20 21 21 21 22 23 23 22 21 21 20 19 18 18 18 18 18 17 17 17 16 16 15 15 14 14 15
13 14 15 15 14 14 14 14 14 14 14 14 14 14 15 15 16 16 17 17 18 18 18 18 19 19 20 21 20 20 20 20 20 20 20 20 20 21 21 20 20 19 19 18 18 18 18 18 18 18 18 18 19 19 19 19 20 20 21 21 21 22 22 21 20 19 19 19 19 18 18 18 18 17 17 17 16 16 16 15 15 14 14 15 15
12 13 13 14 13 13 12 12 12 12 11 11 11 11 12 12 13 14 14 15 15 16 17 17 17 19 20 20 20 19 19 19 19 19 19 19 20 20 20 20 20 20 19 19 19 19 19 19 19 19 19 20 20 20 20 21 21 21 21 21 21 21 19 18 17 18 18 18 18 17 17 17 16 16 16 16 15 15 15 14 14 14 14 14 14
9 10 11 11 11 11 11 11 10 10 10 10 10 10 11 12 12 13 13 14 14 15 15 16 17 18 19 20 20 19 19 19 19 19 18 19 19 19 20 20 20 20 19 19 19 19 19 19 19 19 19 19 19 19 19 19 19 19 19 19 18 18 17 17 17 17 17 17 16 16 16 16 16 15 15 15 15 15 15 15 14 14 14 14 14
6 6 7 8 8 9 9 9 9 10 10 10 10 11 11 12 12 12 13 13 14 14 15 15 16 18 19 20 20 20 19 19 19 18 18 18 18 18 19 19 19 19 19 19 19 18 18 18 17 17 17 17 17 17 17 17 17 18 18 17 17 17 17 17 17 17 16 16 16 16 16 16 16 16 16 15 15 15 15 14 14 14 13 13 14
3 4 5 6 7 7 8 8 9 10 10 10 11 11 11 12 12 12 13 14 14 14 15 15 16 18 19 20 20 19 19 19 19 18 18 18 18 17 18 17 17 18 18 17 17 16 16 16 16 16 16 16 16 16 16 17 17 17 16 16 16 17 17 17 17 17 16 17 17 16 16 16 16 16 16 16 16 15 15 15 14 14 13 14 14
2 2 3 4 4 5 6 6 7 8 8 9 10 10 11 12 12 12 13 13 14 14 15 15 15 16 18 18 19 19 18 18 18 17 17 17 17 17 17 17 17 17 16 16 15 15 15 15 15 15 15 16 16 16 16 16 16 16 16 16 16 17 18 18 17 17 17 17 17 16 16 17 16 16 16 16 16 16 16 15 15 15 15 15 15
4 3 3 3 3 3 3 4 5 5 6 7 8 9 10 10 10 11 11 12 12 13 13 13 14 15 16 16 17 17 16 16 16 15 15 14 15 15 15 15 15 15 14 14 14 14 14 14 14 14 15 15 15 15 16 16 16 16 16 16 17 17 18 17 17 17 17 17 17 17 17 17 17 17 17 17 17 17 16 16 15 15 16 16 16
Wind_Direction
228 228 227 225 223 221 220 220 220 221 221 222 225 227 227 225 223 223 223 225 225 224 223 220 218 216 214 213 212 211 212 211 210 209 207 206 206 205 204 202 202 201 199 198 199 201 200 197 196 193 189 187 187 187 187 187 187 187 189 191 191 192 194 199 198 188 192 208 216 222 231 240 247 255 265 279 299 319 328 329 330 332 332 330 332
227 228 228 226 224 222 222 222 222 221 220 222 225 226 226 224 222 222 223 225 226 227 225 222 220 219 216 214 213 213 213 212 210 209 208 207 206 205 204 203 202 201 199 198 198 198 199 197 193 189 189 190 189 189 190 189 189 191 191 191 191 193 198 205 207 200 200 210 218 224 230 239 248 254 263 280 299 311 315 318 322 325 325 325 328
226 228 228 227 225 224 223 224 224 223 221 223 225 224 224 224 222 221 223 225 227 227 226 224 222 221 218 216 215 214 213 212 211 210 209 209 207 206 205 204 202 201 199 199 199 197 197 196 193 189 188 189 189 190 192 192 193 193 193 192 193 197 205 212 214 213 212 214 219 226 232 241 250 257 268 283 295 301 305 310 315 317 319 321 324
225 226 226 228 227 225 224 224 224 224 224 225 226 225 224 223 222 222 223 226 227 226 226 225 223 221 219 217 215 214 213 211 211 211 210 210 209 207 205 204 204 203 203 202 200 198 196 194 193 190 188 189 190 191 192 194 195 194 193 194 197 204 212 217 220 222 221 219 221 227 233 240 249 258 268 279 288 294 300 305 310 313 315 316 318
226 224 224 225 226 225 225 225 224 224 224 225 226 226 224 223 223 223 223 226 227 226 224 223 222 221 220 218 217 216 215 213 212 211 211 211 210 209 206 205 205 205 206 205 203 200 197 196 194 191 190 190 191 192 194 195 194 194 196 197 201 209 216 220 223 224 225 224 223 227 232 239 250 260 267 275 283 289 295 301 307 309 309 309 311
228 226 224 223 225 225 225 225 225 225 225 226 227 225 224 223 223 224 225 226 226 224 223 222 222 222 222 221 220 218 217 215 214 213 212 210 209 209 207 206 206 207 206 205 203 201 199 198 196 193 194 195 194 194 196 196 195 196 198 201 206 213 218 222 224 224 227 230 230 231 237 245 255 261 267 275 281 287 295 299 302 302 302 303 305
229 229 226 224 225 226 226 226 226 226 226 226 227 226 224 222 223 224 225 225 225 224 223 223 223 224 224 223 222 220 218 216 215 214 212 210 208 207 207 206 206 206 205 204 203 202 201 201 199 198 198 199 198 197 196 196 198 199 201 205 211 218 222 225 226 226 229 232 234 238 243 250 257 262 267 273 279 286 294 296 296 297 297 299 302
229 230 228 226 228 228 228 227 227 227 227 227 227 227 225 223 222 223 224 224 225 225 224 224 225 224 224 224 223 222 219 216 215 214 212 210 208 206 206 206 205 204 203 203 203 202 203 203 202 202 201 202 202 201 199 198 199 201 203 209 215 222 226 227 227 229 231 233 237 243 248 252 257 261 264 269 275 283 289 289 289 292 295 297 301
229 229 227 229 231 231 229 228 228 228 228 228 227 227 226 225 223 223 223 224 224 226 226 226 225 223 223 223 222 221 219 217 216 213 211 209 207 205 205 205 205 204 202 201 202 202 202 204 204 203 203 204 204 203 202 203 204 205 208 213 219 224 228 229 229 229 230 232 238 244 247 252 257 258 262 269 275 280 285 285 284 289 294 295 297
229 228 228 232 234 232 230 228 228 227 227 228 227 226 225 225 224 224 224 224 224 225 225 224 225 224 222 221 220 220 219 218 217 214 213 210 207 205 205 205 205 204 201 199 199 201 203 204 204 204 204 204 204 204 204 206 211 217 221 224 227 230 231 230 229 229 228 230 237 241 243 251 258 260 265 273 276 278 281 280 281 288 292 293 298
228 228 231 235 234 232 230 229 227 227 227 227 227 226 224 223 224 224 224 224 224 224 223 223 224 224 222 221 219 218 219 219 217 215 212 211 209 207 205 204 204 203 202 200 199 199 201 203 203 203 203 203 203 203 204 208 216 223 228 232 237 239 238 234 231 231 230 232 239 243 243 252 260 264 269 274 273 273 276 278 280 284 286 289 298
230 231 235 236 232 231 230 228 227 228 228 227 226 225 224 223 223 223 223 222 221 221 221 222 222 222 221 220 219 218 219 219 216 214 212 211 211 210 208 205 203 203 203 202 200 199 200 200 201 201 200 201 202 202 204 212 221 226 232 238 242 245 244 241 239 238 236 238 242 245 248 254 262 266 270 272 272 271 274 277 278 277 276 279 286
232 234 237 235 232 232 231 229 228 228 228 228 226 224 222 223 223 222 222 221 220 219 220 221 221 221 219 219 219 219 219 218 216 215 214 212 211 211 210 207 205 204 203 202 201 200 199 198 198 197 198 200 200 202 208 217 223 228 236 242 244 245 243 243 244 245 245 246 247 250 256 259 263 269 275 274 270 269 272 275 274 271 272 277 284
234 236 238 236 234 234 233 230 230 230 230 229 226 224 223 224 224 222 221 219 218 218 220 220 221 221 219 219 219 218 218 218 217 215 214 212 212 211 210 209 206 204 203 203 202 201 201 200 197 195 194 196 199 206 214 220 223 229 237 241 244 244 242 243 245 246 248 249 251 257 263 265 267 274 277 273 268 270 275 276 275 274 276 282 286
238 239 238 237 237 236 234 232 232 232 231 228 225 224 224 225 224 222 220 219 218 218 219 220 221 221 220 219 219 218 218 218 217 215 213 212 212 211 210 208 206 204 205 205 204 204 203 201 198 195 195 197 204 213 219 222 225 231 237 240 244 244 243 245 247 249 252 255 258 263 268 270 272 274 275 273 271 275 278 276 276 278 280 281 280
242 241 239 240 239 237 236 234 233 233 231 228 226 225 225 224 224 222 221 220 220 219 219 220 221 221 220 219 219 219 219 217 217 216 213 211 210 209 208 207 205 205 205 204 204 206 204 201 199 198 199 203 210 217 222 225 228 233 237 241 244 244 245 248 250 251 255 258 262 265 267 269 271 272 272 272 271 275 274 270 270 271 273 275 276
245 243 243 244 242 240 238 236 234 234 231 228 228 227 226 225 224 222 220 220 220 220 220 221 221 221 220 219 218 219 220 217 216 216 213 211 208 206 205 205 203 202 202 202 204 204 202 201 201 199 200 207 215 219 222 225 230 234 238 242 244 244 247 250 251 251 253 255 258 262 265 267 268 268 267 263 266 270 261 254 257 260 261 266 273
249 248 249 249 247 244 242 239 236 234 231 230 230 229 227 225 224 221 220 221 221 222 222 222 222 222 222 221 221 221 221 220 218 216 213 212 208 204 202 200 198 198 198 199 201 201 201 202 202 201 205 213 218 220 223 228 232 235 238 241 241 243 248 251 251 251 251 251 253 257 258 258 256 255 253 251 257 265 260 255 258 259 256 260 270
256 256 257 257 253 249 246 242 239 236 234 233 232 231 229 226 224 222 221 221 223 223 222 222 222 223 223 224 223 223 223 223 220 216 212 210 207 203 199 197 196 196 196 195 196 199 202 203 202 205 213 219 220 221 225 231 235 238 240 238 238 244 252 255 253 253 253 252 254 256 255 252 250 249 250 250 250 256 260 262 265 265 264 266 270
266 265 264 261 257 253 249 244 242 239 238 237 235 232 230 227 223 221 221 221 222 222 221 221 221 223 223 224 224 223 223 223 221 215 210 208 206 203 199 196 195 194 193 194 195 198 201 202 203 209 217 219 221 224 228 234 239 241 238 235 239 248 257 258 256 256 256 256 257 257 254 254 254 253 255 256 254 255 258 262 266 269 270 270 268
272 269 266 262 258 255 251 248 246 244 242 239 236 233 230 227 224 222 221 220 220 221 221 220 221 223 223 223 223 223 223 223 220 213 207 206 206 205 201 198 197 196 196 197 198 198 199 201 205 212 217 220 224 229 232 234 236 239 240 241 248 255 258 258 258 258 256 254 253 252 250 251 253 255 256 258 257 259 263 264 266 269 268 266 264
275 272 268 263 259 256 253 251 249 246 243 238 234 232 229 226 224 222 220 219 218 218 218 218 218 220 222 223 223 222 222 222 218 211 206 204 205 205 203 202 203 203 201 199 199 200 202 204 208 214 219 223 230 237 238 232 229 235 244 249 252 254 255 256 258 254 251 250 249 248 247 247 249 252 252 253 254 257 262 261 259 261 264 266 266
277 273 268 265 262 258 256 253 249 245 241 236 232 230 227 223 221 220 218 215 214 214 215 215 215 215 217 219 220 221 221 220 216 209 204 202 204 207 209 209 207 206 205 204 205 205 206 207 212 217 222 228 237 242 240 233 227 233 243 247 246 247 250 253 252 248 247 247 244 244 245 246 248 250 251 254 257 257 257 257 259 262 266 268 268
277 271 268 265 263 260 257 253 247 242 238 233 229 226 222 219 216 215 214 211 209 210 210 209 208 208 209 210 212 215 216 215 211 206 202 203 206 211 213 211 209 209 210 211 212 210 208 209 216 223 228 236 242 242 238 235 231 232 236 239 239 239 241 244 246 244 241 239 239 240 244 247 250 255 260 263 262 258 256 258 261 264 266 267 268
276 270 266 262 260 258 253 248 243 238 234 229 224 220 217 213 210 209 209 207 205 205 204 204 204 203 202 202 203 206 208 206 204 202 203 205 208 211 213 213 213 213 212 213 214 213 212 216 226 232 235 238 238 234 231 231 231 230 229 228 228 228 229 232 235 236 235 235 236 240 246 253 260 265 267 264 259 256 257 258 260 263 265 266 266
275 268 263 259 255 250 244 240 235 232 229 226 223 220 215 210 206 204 203 202 203 202 200 200 200 199 199 199 200 201 202 202 202 202 204 207 209 211 214 215 214 214 214 214 215 215 219 226 230 231 232 232 228 224 223 223 222 221 220 218 218 221 224 226 228 229 231 233 238 246 254 262 266 264 260 256 254 255 257 258 260 263 265 265 263
271 264 260 255 248 240 234 230 225 222 220 219 217 216 214 210 205 200 198 197 198 199 198 197 196 195 196 197 198 199 200 202 204 206 207 208 209 209 209 210 211 210 212 213 214 217 221 225 227 228 229 227 222 219 218 217 214 212 213 214 217 221 225 228 230 232 236 241 248 255 260 263 262 259 256 255 256 257 257 257 261 265 267 264 260
263 260 257 250 242 235 228 223 218 214 212 211 209 209 208 206 203 202 202 201 199 198 198 198 198 198 196 193 192 194 199 204 208 208 206 204 202 202 203 205 207 206 207 210 212 215 219 219 219 220 216 210 208 209 211 212 212 212 213 214 218 223 227 231 235 239 244 248 251 254 256 257 258 258 257 256 256 257 259 260 263 267 267 262 259
255 253 251 244 237 231 224 219 215 209 205 204 205 207 208 207 207 208 210 211 210 208 206 205 205 204 200 196 194 193 200 210 213 211 207 203 201 200 201 203 203 203 205 208 207 206 207 206 203 201 198 197 198 201 205 208 210 213 215 217 220 224 227 230 235 238 241 243 245 249 252 253 255 257 258 258 259 260 261 262 264 266 265 260 260
248 244 241 235 231 225 218 214 210 205 200 196 195 199 204 209 211 212 213 215 216 217 217 218 217 212 206 206 207 208 214 220 218 213 209 207 206 205 205 204 203 202 203 204 203 200 198 195 194 193 193 194 195 198 202 204 206 210 214 216 219 222 225 229 232 234 237 240 243 246 248 249 253 258 258 259 260 261 263 265 265 264 262 261 264
242 236 231 227 224 219 213 208 203 199 196 193 189 186 186 193 205 212 214 215 216 219 222 226 226 220 215 214 214 216 222 228 224 216 213 211 210 210 210 209 209 207 205 202 200 199 196 193 194 195 196 197 200 202 203 204 205 208 210 213 217 222 226 229 230 231 235 238 240 243 244 246 252 256 256 257 260 263 265 265 263 262 263 264 267
240 234 228 223 219 214 209 203 198 193 191 189 186 182 174 169 176 196 209 214 215 217 219 222 224 224 222 220 217 216 220 226 227 220 215 212 211 212 213 213 213 210 206 201 200 199 198 197 198 199 199 201 203 204 204 204 206 208 209 212 219 225 228 228 228 229 233 235 237 240 242 245 249 251 252 254 256 258 260 259 258 260 263 264 265
239 235 227 218 212 207 204 199 195 192 189 186 183 181 176 169 161 161 173 193 206 211 215 220 223 223 222 222 222 220 221 222 221 214 209 208 208 206 206 208 207 201 198 199 202 203 202 202 203 202 202 203 205 205 205 207 209 210 213 216 221 225 227 226 227 229 232 234 237 240 243 245 246 246 246 247 249 251 253 254 255 257 258 259 262
239 236 229 219 209 203 201 198 195 192 191 188 185 183 182 177 168 158 155 159 170 183 198 210 215 214 212 214 216 216 216 218 216 209 202 200 198 194 192 194 196 195 198 202 205 205 204 205 206 207 207 208 209 209 210 212 213 213 216 219 222 225 225 224 225 228 230 233 235 237 239 241 241 239 240 242 245 249 252 253 256 257 256 258 263
237 234 229 221 211 204 201 199 196 194 192 190 188 186 183 180 175 169 167 165 165 168 176 184 192 199 203 205 205 204 204 206 204 200 196 192 186 180 178 182 187 192 199 205 208 209 208 208 209 210 211 211 212 213 213 214 214 214 214 216 218 220 220 221 223 225 227 229 230 231 234 236 236 236 238 241 244 248 251 255 258 259 259 261 264
232 228 224 218 211 206 202 199 197 196 194 191 190 188 186 183 179 176 175 174 171 169 169 171 177 189 198 200 197 194 196 197 195 193 192 186 178 175 177 181 185 189 196 203 207 209 211 212 212 212 212 212 212 214 214 214 213 213 213 214 215 216 218 219 220 220 221 224 229 233 235 235 235 235 237 243 247 249 253 258 260 260 261 262 263
228 223 218 213 207 203 200 197 197 197 196 193 190 188 186 185 183 179 178 178 176 172 171 171 173 178 184 189 189 189 189 190 188 186 183 178 177 182 186 186 186 188 193 199 203 206 209 212 213 212 212 212 212 212 212 211 211 212 213 215 216 217 218 219 218 219 221 224 229 233 234 235 238 239 240 243 247 250 254 258 258 258 259 258 258
227 222 215 208 202 198 195 193 193 194 193 192 190 189 186 185 184 183 183 182 179 176 175 175 176 177 177 179 181 179 174 171 171 175 177 178 182 189 192 190 188 190 194 198 201 204 207 209 211 212 211 210 208 207 206 206 208 210 211 212 214 217 220 220 220 221 224 227 230 232 235 237 239 241 242 244 247 251 254 255 254 254 253 251 255
225 220 213 205 199 196 193 190 189 189 190 190 190 190 188 186 185 186 186 184 183 182 180 180 183 184 180 177 175 172 169 170 174 177 180 183 188 193 196 195 194 195 197 198 200 202 203 205 206 207 206 206 204 204 204 206 209 210 211 212 215 218 219 219 221 223 227 231 233 234 236 238 239 242 245 247 250 252 253 252 251 250 250 253 260
218 214 208 201 197 195 194 191 190 189 190 190 191 191 191 190 189 190 189 187 186 187 186 187 191 191 186 181 178 177 177 180 183 184 183 187 192 197 199 200 199 198 198 199 200 201 202 203 204 204 205 205 205 205 208 211 213 212 212 214 217 219 219 220 224 228 231 233 234 236 237 240 242 244 247 248 249 249 249 249 249 250 253 260 268
214 208 203 199 197 196 193 192 193 193 192 193 193 194 194 195 193 193 192 191 190 191 193 196 198 196 192 189 187 186 186 187 188 189 189 191 195 198 201 204 205 204 203 203 203 204 205 206 206 206 206 207 208 210 213 215 214 213 213 215 218 222 225 228 231 233 234 235 237 239 242 243 244 245 246 246 245 245 246 248 251 253 258 264 268
208 202 198 196 197 195 193 193 195 194 193 194 196 197 198 197 196 195 195 196 197 197 198 201 203 201 197 194 192 192 194 194 193 193 195 196 199 202 204 207 210 211 210 210 209 209 209 210 210 210 210 210 211 212 213 212 212 214 216 220 224 228 233 237 238 239 240 243 244 245 246 245 244 243 244 244 243 243 246 250 253 256 260 264 265
203 198 195 195 195 195 195 195 195 193 194 196 198 200 201 200 200 201 201 201 203 203 202 203 204 202 200 197 195 197 201 202 199 199 200 201 203 205 206 208 211 213 215 215 215 213 213 212 211 211 211 211 212 213 214 215 218 222 226 230 233 236 239 241 243 244 245 246 247 246 245 243 241 241 241 243 244 246 247 250 252 255 258 261 263
197 193 191 190 190 192 194 194 194 195 197 199 201 203 204 204 205 206 206 206 207 207 207 206 204 201 198 196 196 201 207 207 205 205 205 205 206 207 208 209 210 210 210 211 211 211 211 211 210 210 210 211 215 219 223 226 229 231 233 236 238 241 243 246 248 249 249 248 247 245 243 241 240 241 242 243 244 245 246 248 250 253 256 258 259
192 189 186 184 185 187 189 190 192 195 198 200 202 203 205 208 210 210 210 211 210 209 209 209 206 202 198 195 196 203 210 210 209 209 209 209 209 210 210 211 211 210 210 210 211 212 214 215 216 217 218 221 224 226 229 231 233 236 239 243 246 249 251 252 252 251 248 245 244 243 241 240 240 241 242 243 244 245 248 251 252 252 253 254 255
189 186 184 183 182 183 184 186 189 192 194 197 201 203 203 208 211 212 213 214 212 211 210 209 206 203 200 196 197 204 209 209 209 211 211 211 212 213 214 214 214 214 215 216 218 220 221 222 224 225 226 229 231 232 234 237 240 243 246 248 248 249 249 247 245 243 241 240 241 241 241 242 242 242 243 244 245 246 249 251 251 250 250 252 255
190 188 188 188 186 185 185 186 188 191 196 200 204 205 206 208 210 211 211 212 211 211 210 208 206 204 200 198 200 205 208 208 209 209 209 211 213 215 217 217 217 218 219 220 222 224 225 226 228 230 231 233 235 237 239 241 244 245 247 246 246 246 245 242 242 242 242 242 242 241 242 243 243 243 244 244 244 246 248 248 249 250 250 251 254
203 201 199 198 195 194 194 193 193 196 200 202 203 205 205 205 206 207 208 208 208 208 208 207 206 204 202 201 204 207 208 209 210 210 210 213 214 214 216 217 218 219 222 224 225 227 228 228 230 232 233 235 237 238 241 243 244 244 245 245 245 245 244 244 244 244 243 242 242 241 241 243 243 243 244 245 246 248 250 250 250 250 250 252 255
218 212 207 207 205 201 200 200 199 200 201 200 200 201 202 203 205 205 205 206 206 206 207 207 206 205 204 204 206 208 209 209 210 211 213 215 216 216 218 219 220 222 225 226 226 226 226 227 230 232 234 236 238 239 241 243 243 244 245 245 244 244 244 244 244 243 242 242 242 241 241 242 243 243 245 246 248 249 250 250 251 251 251 253 256
172 179 193 200 197 195 197 199 198 199 199 200 201 201 201 202 204 204 203 203 203 203 205 206 206 205 206 205 205 207 208 210 211 213 216 218 219 219 220 220 221 223 223 223 224 225 226 228 231 234 236 238 239 240 242 243 243 244 243 243 242 242 243 243 243 243 242 242 242 242 242 244 244 245 246 246 246 247 247 247 248 250 251 252 255
114 118 129 139 146 160 175 179 181 188 193 196 200 201 200 201 202 201 201 202 202 202 204 205 205 205 206 206 207 208 210 212 215 217 218 218 217 217 218 220 222 223 225 227 228 230 232 234 236 238 239 241 242 244 244 245 244 244 243 242 241 241 241 242 242 243 242 242 243 243 244 245 245 246 247 247 246 245 246 247 247 248 251 253 255